Linden, NJ

4:19 PM EDT on August 29, 2016 (GMT -0400)
Linden

Weather History for KLDJ - March, 2013

Change the Weather History Date:

Friday, March 8, 2013

  Actual Average (KEWR) Record (KEWR)
Temperature  
Mean Temperature 38 °F 40 °F  
Max Temperature 43 °F 48 °F 77 °F (1987)
Min Temperature 32 °F 31 °F 13 °F (1986)
Degree Days  
Heating Degree Days 28 25  
Month to date heating degree days 211  
Since 1 July heating degree days 3846  
Cooling Degree Days 0 0  
Month to date cooling degree days 0  
Year to date cooling degree days 0  
Moisture  
Dew Point 33 °F    
Average Humidity 87    
Maximum Humidity 96    
Minimum Humidity 65    
Precipitation  
Precipitation 0.49 in 0.13 in 1.31 in (1941)
Month to date precipitation 0.99  
Year to date precipitation 7.41  
Snow  
Snow 0.00 in 0.20 in 12.00 in (1941)
Month to date snowfall 1.7  
Since 1 July snowfall 24.7  
Snow Depth -    
Sea Level Pressure  
Sea Level Pressure 30.08 in    
Wind  
Wind Speed 7 mph (NNW)    
Max Wind Speed 12 mph    
Max Gust Speed 21 mph    
Visibility 4 miles    
Events Rain , Snow    
T = Trace of Precipitation, MM = Missing Value Source: NWS Daily Summary

Daily Weather History Graph

Daily Weather History Graph

Search for Another Location

Airport or City:

Trip Planner

Search our weather history database for the weather conditions in past years. The results will help you decide how hot, cold, wet, or windy it might be!

Date:

Astronomy

Mar. 08, 2013 Rise Set
Actual Time 6:19 AM EST 5:56 PM EST
Civil Twilight 5:52 AM EST 6:23 PM EST
Nautical Twilight 5:20 AM EST 6:55 PM EST
Astronomical Twilight 4:48 AM EST 7:27 PM EST
Moon 4:02 AM EST (3/8) 2:48 PM EST (3/8)
Length of Visible Light 12h 31m
Length of Day
11h 36m
Waning Crescent, 12% of the Moon is Illuminated
Mar 8
Waning Crescent
Mar 11
New
Mar 19
First Quarter
Mar 27
Full
Apr 3
Last Quarter

Hourly Weather History & Observations

Time (EST) Temp. Windchill Dew Point Humidity Pressure Visibility Wind Dir Wind Speed Gust Speed Precip Events Conditions
12:15 AM 34.3 °F 30.2 °F 32.9 °F 94% 30.06 in 2.5 mi WNW 4.6 mph - 0.01 in Snow Light Snow
12:35 AM 34.3 °F 28.4 °F 32.9 °F 94% 30.06 in 2.5 mi NW 6.9 mph - 0.02 in Snow Light Snow
12:55 AM 34.3 °F 27.7 °F 32.9 °F 94% 30.07 in 2.5 mi NW 8.1 mph - 0.02 in Snow Light Snow
1:15 AM 34.2 °F 28.2 °F 32.9 °F 95% 30.06 in 2.5 mi NW 6.9 mph - 0.01 in Snow Light Snow
1:35 AM 34.0 °F 28.0 °F 32.5 °F 94% 30.06 in 2.0 mi NW 6.9 mph - 0.01 in Snow Light Snow
2:15 AM 34.0 °F 26.6 °F 32.4 °F 94% 30.05 in 3.0 mi NW 9.2 mph - N/A Snow Light Snow
2:35 AM 34.0 °F 28.0 °F 32.4 °F 94% 30.04 in 4.0 mi NW 6.9 mph - N/A Snow Light Snow
3:15 AM 34.0 °F 28.0 °F 32.2 °F 93% 30.03 in 5.0 mi NNW 6.9 mph - N/A Snow Light Snow
3:35 AM 34.0 °F 27.2 °F 32.0 °F 92% 30.02 in 4.0 mi NNW 8.1 mph - N/A Snow Light Snow
4:15 AM 33.8 °F 27.0 °F 32.0 °F 93% 30.02 in 3.0 mi NW 8.1 mph - N/A Snow Light Snow
4:35 AM 33.8 °F 28.6 °F 32.0 °F 93% 30.02 in 2.0 mi NW 5.8 mph - 0.01 in Snow Light Snow
4:55 AM 33.4 °F 28.1 °F 32.0 °F 94% 30.02 in 1.8 mi NW 5.8 mph - 0.01 in Snow Light Snow
5:15 AM 33.4 °F 27.3 °F 32.0 °F 94% 30.02 in 2.5 mi NW 6.9 mph - N/A Snow Light Snow
5:35 AM 33.3 °F 26.4 °F 32.0 °F 95% 30.02 in 2.0 mi NNW 8.1 mph - N/A Snow Light Snow
5:55 AM 33.3 °F 27.1 °F 32.0 °F 95% 30.02 in 2.0 mi NNW 6.9 mph - 0.01 in Snow Light Snow
6:15 AM 33.1 °F 26.9 °F 32.0 °F 96% 30.02 in 2.5 mi NW 6.9 mph - N/A Snow Light Snow
6:35 AM 33.1 °F 28.7 °F 32.0 °F 96% 30.02 in 1.8 mi NW 4.6 mph - 0.02 in   Overcast
6:55 AM 32.9 °F 26.7 °F 32.0 °F 96% 30.03 in 1.5 mi NW 6.9 mph - 0.03 in Snow Light Snow
7:15 AM 32.9 °F 26.7 °F 31.8 °F 96% 30.03 in 1.8 mi NNW 6.9 mph - N/A Snow Light Snow
7:35 AM 32.9 °F 27.5 °F 31.8 °F 96% 30.03 in 1.2 mi NNW 5.8 mph - 0.01 in Snow Light Snow
7:55 AM 32.9 °F 28.5 °F 31.8 °F 96% 30.03 in 0.8 mi NW 4.6 mph - 0.02 in Snow Light Snow
8:15 AM 33.1 °F 28.7 °F 32.0 °F 96% 30.04 in 1.2 mi NW 4.6 mph - 0.01 in Snow Light Snow
8:35 AM 33.1 °F 28.7 °F 31.8 °F 95% 30.04 in 1.0 mi NW 4.6 mph - 0.01 in Snow Light Snow
8:55 AM 33.1 °F 28.7 °F 31.8 °F 95% 30.04 in 1.0 mi NNW 4.6 mph - 0.02 in Snow Light Snow
9:15 AM 33.3 °F 27.9 °F 32.0 °F 95% 30.04 in 1.0 mi NNW 5.8 mph - 0.01 in Rain Heavy Rain
9:35 AM 33.4 °F 28.1 °F 32.0 °F 94% 30.04 in 0.8 mi NW 5.8 mph - 0.02 in   Unknown
9:55 AM 33.8 °F 29.6 °F 32.0 °F 93% 30.05 in 0.8 mi NW 4.6 mph - 0.04 in   Unknown
10:15 AM 33.8 °F 27.7 °F 32.0 °F 93% 30.05 in 0.8 mi NNW 6.9 mph - 0.02 in Snow Light Snow
10:35 AM 33.8 °F 29.6 °F 32.0 °F 93% 30.05 in 0.5 mi NNW 4.6 mph - 0.06 in Snow Light Snow
10:55 AM 33.8 °F 28.6 °F 32.0 °F 93% 30.05 in 0.5 mi NW 5.8 mph - 0.09 in Snow Light Snow
11:15 AM 33.8 °F 27.7 °F 32.0 °F 93% 30.06 in 0.5 mi NW 6.9 mph - 0.03 in Snow Snow
11:35 AM 33.8 °F 27.7 °F 32.2 °F 94% 30.06 in 0.5 mi NW 6.9 mph - 0.06 in Snow Light Snow
11:55 AM 33.8 °F 26.4 °F 32.0 °F 93% 30.06 in 0.8 mi NW 9.2 mph - 0.09 in Snow Light Snow
12:35 PM 34.0 °F 27.2 °F 32.2 °F 93% 30.06 in 0.8 mi NNW 8.1 mph - 0.05 in Snow Light Snow
12:55 PM 34.2 °F 28.2 °F 32.5 °F 94% 30.05 in 0.8 mi NW 6.9 mph - 0.07 in Snow Light Snow
1:15 PM 34.3 °F 27.7 °F 32.9 °F 94% 30.05 in 1.0 mi NW 8.1 mph - 0.01 in Snow Light Snow
1:35 PM 34.7 °F 28.8 °F 33.1 °F 94% 30.05 in 1.5 mi NW 6.9 mph - 0.02 in Snow Light Snow
1:55 PM 34.9 °F 30.8 °F 33.1 °F 93% 30.05 in 1.2 mi NW 4.6 mph - 0.03 in   Overcast
2:15 PM 34.9 °F - 33.3 °F 94% 30.05 in 2.0 mi Calm Calm - 0.01 in Rain Rain
2:35 PM 34.9 °F - 33.3 °F 94% 30.05 in 1.2 mi Calm Calm - 0.03 in Rain Light Rain
2:55 PM 34.7 °F - 33.3 °F 94% 30.06 in 1.5 mi Calm Calm - 0.04 in   Overcast
3:15 PM 35.1 °F 31.0 °F 33.8 °F 95% 30.06 in 3.0 mi NW 4.6 mph - N/A Rain Light Rain
3:35 PM 36.0 °F 32.1 °F 34.5 °F 94% 30.06 in 5.0 mi NNW 4.6 mph - N/A Rain Light Rain
3:55 PM 37.0 °F - 35.1 °F 93% 30.06 in 7.0 mi Calm Calm - N/A Rain Rain
4:15 PM 38.8 °F 33.2 °F 35.6 °F 88% 30.06 in 7.0 mi North 8.1 mph - N/A   Light Drizzle
4:35 PM 40.1 °F 34.1 °F 35.2 °F 83% 30.07 in 7.0 mi NNW 9.2 mph - 0.01 in   Light Drizzle
4:55 PM 40.6 °F 35.4 °F 34.7 °F 79% 30.08 in 10.0 mi North 8.1 mph - 0.01 in   Overcast
5:15 PM 41.0 °F 35.2 °F 34.2 °F 77% 30.09 in 10.0 mi North 9.2 mph - N/A   Overcast
5:35 PM 41.4 °F 36.2 °F 34.0 °F 75% 30.09 in 10.0 mi NNW 8.1 mph - N/A   Overcast
5:55 PM 42.3 °F 36.3 °F 34.3 °F 74% 30.11 in 10.0 mi North 10.4 mph - N/A   Overcast
6:15 PM 42.4 °F 37.0 °F 34.2 °F 72% 30.12 in 10.0 mi North 9.2 mph - N/A   Overcast
6:35 PM 42.8 °F 37.0 °F 33.6 °F 70% 30.14 in 10.0 mi North 10.4 mph 17.3 mph N/A   Overcast
6:55 PM 43.2 °F 37.0 °F 32.9 °F 67% 30.14 in 10.0 mi North 11.5 mph 20.7 mph N/A   Overcast
7:15 PM 42.4 °F 37.5 °F 33.8 °F 71% 30.16 in 10.0 mi North 8.1 mph - N/A   Overcast
7:35 PM 42.3 °F 36.3 °F 34.0 °F 72% 30.16 in 10.0 mi NNW 10.4 mph - N/A   Overcast
8:15 PM 41.9 °F 37.5 °F 33.3 °F 71% 30.18 in 10.0 mi North 6.9 mph - N/A   Overcast
8:35 PM 41.5 °F 37.1 °F 33.1 °F 72% 30.19 in 10.0 mi North 6.9 mph - N/A   Overcast
9:15 PM 41.4 °F 35.2 °F 32.9 °F 72% 30.20 in 10.0 mi North 10.4 mph - N/A   Overcast
9:35 PM 41.4 °F 35.2 °F 32.0 °F 69% 30.20 in 10.0 mi North 10.4 mph 17.3 mph N/A   Mostly Cloudy
10:15 PM 41.0 °F 36.4 °F 31.1 °F 68% 30.20 in 10.0 mi North 6.9 mph - N/A   Mostly Cloudy
10:35 PM 40.5 °F 35.1 °F 30.9 °F 69% 30.20 in 10.0 mi NNW 8.1 mph - N/A   Scattered Clouds
10:55 PM 40.5 °F 35.1 °F 30.0 °F 66% 30.20 in 10.0 mi NNW 8.1 mph - N/A   Clear
11:15 PM 40.1 °F 35.3 °F 29.5 °F 66% 30.20 in 10.0 mi North 6.9 mph - N/A   Clear
11:35 PM 39.7 °F 34.9 °F 29.1 °F 66% 30.21 in 10.0 mi North 6.9 mph - N/A   Clear
11:55 PM 39.6 °F 36.3 °F 28.8 °F 65% 30.21 in 10.0 mi NNW 4.6 mph - N/A   Clear